Date String (YYYY-MM-DD hh:mm:ss) UTC,Instrument flags,Ambient pressure (hPa),Sample flow (lpm),Bypass flow (lpm),Sample temperature (°C),Ambient temperature (°C),ASC tube jacket temperature (°C),LED temperature (°C),Box temperature (°C),Sample RH (%),Span deviation,Mass concentration (μg/m³),Mass concentration (μg/m³),Mass concentration (μg/m³)
DateTimeUTC,F1_M11,P_M11,Q1_M11,Q2_M11,T1_M11,T2_M11,T3_M11,T4_M11,T5_M11,U1_M11,ZSPAN_M11,X0_M11,X2_M11,X1_M11
2023-03-03 09:00:00,,0813.5,4.99,0.00,22.5,22.4,00.0,31.1,24.4,12.7,-000.0,0014.68,0008.30,0007.79
2023-03-03 09:01:00,,0813.5,5.00,0.00,22.6,23.2,00.0,31.1,24.6,12.9,0000.1,0014.64,0008.27,0007.75
2023-03-03 09:02:00,,0813.5,5.00,0.00,22.6,22.9,00.0,31.2,24.6,13.0,-000.1,0014.08,0008.26,0007.75
2023-03-03 09:03:00,,0813.5,5.02,0.00,22.6,22.5,00.0,31.2,24.5,13.1,0000.4,0012.85,0008.22,0007.75
2023-03-03 09:04:00,,0813.5,5.00,0.00,22.6,22.1,00.0,31.2,24.4,13.1,-000.0,0012.80,0008.26,0007.77
2023-03-03 09:05:00,,0813.5,5.00,0.00,22.6,21.8,00.0,31.3,24.3,13.2,-000.2,0012.83,0008.26,0007.78
2023-03-03 09:06:00,,0813.5,5.00,0.00,22.6,21.6,00.0,31.3,24.3,13.2,-000.5,0012.67,0008.23,0007.79
2023-03-03 09:07:00,,0813.5,4.99,0.00,22.6,21.4,00.0,31.3,24.2,13.3,-001.1,0013.25,0008.26,0007.82
2023-03-03 09:08:00,,0813.5,5.00,0.00,22.6,21.3,00.0,31.3,24.2,13.4,-001.5,0014.04,0008.34,0007.82
2023-03-03 09:09:00,,0813.5,5.00,0.00,22.5,21.1,00.0,31.3,24.1,13.4,-001.7,0014.83,0008.42,0007.84
2023-03-03 09:10:00,,0813.5,5.00,0.00,22.5,21.0,00.0,31.3,24.1,13.5,-001.8,0015.92,0008.55,0007.93
2023-03-03 09:11:00,,0813.5,5.01,0.00,22.5,21.0,00.0,31.3,24.1,13.5,-001.6,0015.99,0008.68,0008.05
2023-03-03 09:12:00,,0813.5,5.00,0.00,22.5,20.9,00.0,31.3,24.2,13.4,-001.6,0016.01,0008.73,0008.09
2023-03-03 09:13:00,,0813.5,5.01,0.00,22.5,20.9,00.0,31.3,24.1,13.4,-001.5,0016.45,0008.77,0008.08
2023-03-03 09:14:00,,0813.5,5.00,0.00,22.4,20.9,00.0,31.2,24.1,13.4,-001.7,0016.61,0008.82,0008.12
2023-03-03 09:15:00,,0813.5,5.00,0.00,22.4,20.9,00.0,31.2,24.1,13.4,-001.8,0016.52,0008.77,0008.13
2023-03-03 09:16:00,,0813.5,4.97,0.00,22.4,20.8,00.0,31.2,24.0,13.2,-001.7,0017.05,0008.79,0008.13
2023-03-03 09:17:00,,0813.6,4.97,0.00,22.4,20.8,00.0,31.2,24.0,13.3,-001.7,0017.46,0008.82,0008.12
2023-03-03 09:18:00,,0813.6,5.00,0.00,22.4,20.8,00.0,31.2,24.0,13.3,-001.4,0017.34,0008.79,0008.09
2023-03-03 09:19:00,,0813.6,4.99,0.00,22.3,20.7,00.0,31.2,24.0,13.4,-000.9,0016.64,0008.70,0008.06
2023-03-03 09:20:00,,0813.7,5.00,0.00,22.3,20.7,00.0,31.2,24.0,13.5,-000.5,0016.21,0008.63,0008.02
2023-03-03 09:21:00,,0814.0,5.01,0.00,22.4,21.4,00.0,31.1,24.2,13.5,-000.5,0015.46,0008.58,0007.98
2023-03-03 09:22:00,,0814.2,5.00,0.00,22.5,22.5,00.0,31.1,24.4,13.5,-001.1,0015.45,0008.58,0007.98
2023-03-03 09:23:00,,0814.3,5.02,0.00,22.6,23.4,00.0,31.2,24.6,13.4,-001.2,0015.51,0008.62,0007.98
2023-03-03 09:24:00,,0814.2,5.02,0.00,22.7,22.9,00.0,31.2,24.6,13.3,-001.3,0015.20,0008.63,0008.00
2023-03-03 09:25:00,,0814.2,5.01,0.00,22.7,22.5,00.0,31.3,24.5,13.3,-001.4,0015.08,0008.62,0007.99
2023-03-03 09:26:00,,0814.2,4.98,0.00,22.6,22.1,00.0,31.3,24.4,13.3,-001.3,0015.16,0008.64,0007.99
2023-03-03 09:27:00,,0814.1,5.01,0.00,22.6,21.8,00.0,31.3,24.3,13.2,-001.3,0014.89,0008.62,0007.96
2023-03-03 09:28:00,,0814.3,5.00,0.00,22.6,21.6,00.0,31.3,24.3,13.2,-000.8,0014.83,0008.58,0007.93
2023-03-03 09:29:00,,0814.2,5.00,0.00,22.6,21.4,00.0,31.3,24.3,13.2,-000.7,0014.40,0008.59,0007.91
2023-03-03 09:30:00,,0814.2,5.01,0.00,22.6,21.3,00.0,31.3,24.2,13.3,-000.8,0014.47,0008.61,0007.92
2023-03-03 09:31:00,,0814.1,5.01,0.00,22.6,21.2,00.0,31.3,24.2,13.3,-001.0,0014.41,0008.64,0007.93
2023-03-03 09:32:00,,0814.3,5.00,0.00,22.5,21.1,00.0,31.3,24.2,13.3,-001.1,0014.33,0008.66,0007.94
2023-03-03 09:33:00,,0814.3,4.96,0.00,22.5,21.0,00.0,31.3,24.2,13.3,-001.1,0014.28,0008.63,0007.92
2023-03-03 09:34:00,,0814.1,5.02,0.00,22.5,20.9,00.0,31.3,24.2,13.3,-000.7,0014.86,0008.55,0007.90
2023-03-03 09:35:00,,0814.0,4.99,0.00,22.5,20.9,00.0,31.3,24.1,13.3,-000.4,0014.94,0008.49,0007.86
2023-03-03 09:36:00,,0813.8,4.99,0.00,22.5,20.9,00.0,31.3,24.1,13.4,0000.1,0015.14,0008.46,0007.82
2023-03-03 09:37:00,,0813.9,4.99,0.00,22.4,20.8,00.0,31.3,24.1,13.4,-000.0,0015.18,0008.44,0007.78
2023-03-03 09:38:00,,0813.9,5.00,0.00,22.4,20.8,00.0,31.2,24.1,13.4,-000.1,0015.03,0008.44,0007.79
2023-03-03 09:39:00,,0814.0,5.00,0.00,22.4,20.7,00.0,31.2,24.0,13.4,-000.3,0014.61,0008.43,0007.79
2023-03-03 09:40:00,,0814.2,4.99,0.00,22.4,20.7,00.0,31.2,24.0,13.4,-000.6,0014.45,0008.40,0007.77
2023-03-03 09:41:00,,0814.2,4.96,0.00,22.4,20.7,00.0,31.2,24.0,13.5,-000.6,0015.09,0008.38,0007.75
2023-03-03 09:42:00,,0814.2,4.98,0.00,22.4,20.7,00.0,31.2,24.0,13.5,-000.3,0015.03,0008.36,0007.73
2023-03-03 09:43:00,,0814.2,5.02,0.00,22.4,21.0,00.0,31.2,24.1,13.4,0000.1,0015.09,0008.32,0007.69
2023-03-03 09:44:00,,0814.2,5.02,0.00,22.5,22.1,00.0,31.2,24.3,13.4,0000.1,0015.00,0008.34,0007.67
2023-03-03 09:45:00,,0814.2,5.02,0.00,22.6,23.1,00.0,31.2,24.6,13.3,-000.4,0014.33,0008.34,0007.66
2023-03-03 09:46:00,,0814.1,5.01,0.00,22.6,23.1,00.0,31.2,24.6,13.2,-000.6,0014.32,0008.34,0007.64
2023-03-03 09:47:00,,0814.1,5.00,0.00,22.7,22.6,00.0,31.3,24.6,13.2,-001.1,0015.07,0008.36,0007.66
2023-03-03 09:48:00,,0814.2,4.98,0.00,22.7,22.2,00.0,31.3,24.5,13.2,-000.8,0015.02,0008.34,0007.66
2023-03-03 09:49:00,,0813.9,5.00,0.00,22.7,21.9,00.0,31.3,24.4,13.2,-001.0,0015.04,0008.34,0007.67
2023-03-03 09:50:00,,0813.6,5.02,0.00,22.6,21.7,00.0,31.3,24.4,13.2,-001.1,0015.16,0008.35,0007.68
2023-03-03 09:51:00,,0813.6,4.99,0.00,22.6,21.5,00.0,31.3,24.3,13.2,-001.1,0015.56,0008.38,0007.70
2023-03-03 09:52:00,,0813.6,4.99,0.00,22.6,21.3,00.0,31.3,24.2,13.2,-001.0,0016.02,0008.39,0007.71
2023-03-03 09:53:00,,0813.6,5.00,0.00,22.6,21.1,00.0,31.3,24.2,13.2,-000.6,0015.97,0008.39,0007.72
2023-03-03 09:54:00,,0813.7,5.02,0.00,22.6,21.0,00.0,31.3,24.2,13.2,-000.4,0016.57,0008.46,0007.76
2023-03-03 09:55:00,,0814.2,5.00,0.00,22.5,20.9,00.0,31.3,24.2,13.2,-000.1,0017.07,0008.47,0007.80
2023-03-03 09:56:00,,0814.1,5.00,0.00,22.5,20.9,00.0,31.3,24.1,13.2,0000.0,0017.18,0008.50,0007.84
2023-03-03 09:57:00,,0814.1,4.99,0.00,22.5,20.8,00.0,31.3,24.1,13.3,-000.3,0016.94,0008.52,0007.89
2023-03-03 09:58:00,,0814.2,4.99,0.00,22.5,20.8,00.0,31.3,24.1,13.3,-000.1,0016.67,0008.56,0007.92
2023-03-03 09:59:00,,0814.2,5.01,0.00,22.4,20.7,00.0,31.3,24.1,13.3,0000.3,0017.19,0008.63,0007.97
